Weather History for Chicago Midway, IL

Change the Weather History Date:

Tuesday, July 22, 2014

  Actual Average Record
Temperature  
Mean Temperature 82 °F 76 °F  
Max Temperature 91 °F 84 °F 104 °F (1934)
Min Temperature 72 °F 68 °F 49 °F (1947)
Degree Days  
Heating Degree Days 0 0  
Month to date heating degree days 1 0  
Since 1 June heating degree days 3 31  
Since 1 July heating degree days 1 0  
Cooling Degree Days 17 11  
Month to date cooling degree days 177 240  
Year to date cooling degree days 539 524  
Since 1 June cooling degree days 428 450  
Growing Degree Days 31 (Base 50)    
Moisture  
Dew Point 70 °F    
Average Humidity 67    
Maximum Humidity 87    
Minimum Humidity 49    
Precipitation  
Precipitation 0.19 in 0.14 in 1.82 in (1962)
Month to date precipitation 5.14 2.75  
Year to date precipitation 24.15 21.30  
Sea Level Pressure  
Sea Level Pressure 29.97 in    
Wind  
Wind Speed 13 mph (SSW)    
Max Wind Speed 23 mph    
Max Gust Speed 27 mph    
Visibility 10 miles    
Events Rain , Thunderstorm    
T = Trace of Precipitation, MM = Missing Value Source: NWS Daily Summary

Daily Weather History Graph

Daily Weather History Graph

Search for Another Location

Airport:

Trip Planner

Search our weather history database for the weather conditions in past years. The results will help you decide how hot, cold, wet, or windy it might be!

Date:

Astronomy

Jul. 22, 2014 Rise Set
Actual Time 5:35 AM CDT 8:18 PM CDT
Civil Twilight 5:03 AM CDT 8:51 PM CDT
Nautical Twilight 4:22 AM CDT 9:31 PM CDT
Astronomical Twilight 3:35 AM CDT 10:18 PM CDT
Moon 2:08 AM CDT (7/22) 4:56 PM CDT (7/22)
Length of Visible Light 15h 48m
Length of Day
14h 43m
Waning Crescent, 16% of the Moon is Illuminated
Jul 22
Waning Crescent
Jul 26
New
Aug 3
First Quarter
Aug 10
Full
Aug 17
Last Quarter

Hourly Weather History & Observations

Time (CDT) Temp. Heat Index Dew Point Humidity Pressure Visibility Wind Dir Wind Speed Gust Speed Precip Events Conditions
12:51 AM 75.2 °F - 64.4 °F 69% 30.06 in 10.0 mi SSW 5.8 mph - N/A   Clear
1:51 AM 75.0 °F - 64.9 °F 71% 30.02 in 10.0 mi South 4.6 mph - N/A   Clear
2:51 AM 73.0 °F - 64.9 °F 76% 30.03 in 10.0 mi SSW 6.9 mph - N/A   Clear
3:51 AM 73.0 °F - 64.9 °F 76% 30.02 in 10.0 mi South 6.9 mph - N/A   Clear
4:51 AM 72.0 °F - 64.9 °F 78% 30.02 in 10.0 mi SSW 6.9 mph - N/A   Clear
5:51 AM 71.6 °F - 64.4 °F 78% 30.06 in 10.0 mi SW 6.9 mph - N/A   Clear
6:51 AM 73.0 °F - 64.9 °F 76% 30.04 in 10.0 mi SSW 9.2 mph - N/A   Partly Cloudy
7:51 AM 75.9 °F - 64.9 °F 69% 30.01 in 10.0 mi SSW 13.8 mph - N/A   Clear
8:51 AM 79.0 °F - 66.0 °F 64% 29.99 in 10.0 mi SSW 11.5 mph 20.7 mph N/A   Clear
9:51 AM 82.0 °F 84.1 °F 66.0 °F 58% 29.98 in 10.0 mi SSW 16.1 mph 23.0 mph N/A   Partly Cloudy
10:51 AM 84.0 °F 87.0 °F 68.0 °F 58% 29.98 in 10.0 mi SSW 13.8 mph 23.0 mph N/A   Partly Cloudy
11:51 AM 87.1 °F 91.3 °F 69.1 °F 55% 29.97 in 10.0 mi SSW 19.6 mph 25.3 mph N/A   Scattered Clouds
12:51 PM 87.1 °F 92.0 °F 70.0 °F 57% 29.96 in 10.0 mi SW 15.0 mph 23.0 mph N/A   Mostly Cloudy
1:51 PM 89.1 °F 96.0 °F 72.0 °F 57% 29.93 in 10.0 mi SSW 15.0 mph 21.9 mph N/A   Scattered Clouds
2:51 PM 91.0 °F 98.2 °F 72.0 °F 53% 29.91 in 10.0 mi SSW 17.3 mph - N/A   Scattered Clouds
3:51 PM 90.0 °F 97.9 °F 73.0 °F 57% 29.89 in 10.0 mi SSW 16.1 mph 25.3 mph N/A   Scattered Clouds
4:51 PM 89.1 °F 98.0 °F 73.9 °F 61% 29.91 in 10.0 mi SW 15.0 mph - N/A   Overcast
5:51 PM 88.0 °F 97.5 °F 75.0 °F 65% 29.92 in 10.0 mi SSW 16.1 mph - N/A   Overcast
6:51 PM 87.8 °F 97.6 °F 75.2 °F 66% 29.94 in 10.0 mi SSW 13.8 mph - N/A   Mostly Cloudy
7:51 PM 87.1 °F 96.3 °F 75.0 °F 67% 29.91 in 10.0 mi SSW 11.5 mph - N/A   Scattered Clouds
8:51 PM 86.0 °F 95.1 °F 75.0 °F 70% 29.92 in 10.0 mi SW 12.7 mph - N/A   Overcast
9:51 PM 84.9 °F 94.1 °F 75.9 °F 74% 29.91 in 10.0 mi WSW 10.4 mph - N/A   Mostly Cloudy
10:51 PM 84.0 °F 92.6 °F 75.9 °F 76% 29.91 in 10.0 mi SW 13.8 mph - N/A   Overcast
11:44 PM 82.9 °F 90.8 °F 75.9 °F 79% 29.97 in 3.0 mi West 11.5 mph - 0.06 in Rain , Thunderstorm Light Thunderstorms and Rain
11:51 PM 78.1 °F - 73.9 °F 87% 29.95 in 3.0 mi NE 20.7 mph 27.6 mph 0.17 in Rain , Thunderstorm Thunderstorms and Rain